Weather History for Stevens Point, WI

Change the Weather History Date:

Monday, July 29, 2013

  Actual Average Record
Temperature  
Mean Temperature 61 °F -  
Max Temperature 73 °F 79 °F 94 °F (1988)
Min Temperature 49 °F 57 °F 40 °F (1952)
Degree Days  
Heating Degree Days 4    
Growing Degree Days 11 (Base 50)    
Moisture  
Dew Point 50 °F    
Average Humidity 70    
Maximum Humidity 90    
Minimum Humidity 50    
Precipitation  
Precipitation 0.00 in - - ()
Sea Level Pressure  
Sea Level Pressure 30.12 in    
Wind  
Wind Speed 5 mph (NW)    
Max Wind Speed 10 mph    
Max Gust Speed -    
Visibility 10 miles    
Events      
Averages and records for this station are not official NWS values.
T = Trace of Precipitation, MM = Missing Value Source: NWS Daily Summary

Daily Weather History Graph

Daily Weather History Graph

Search for Another Location

Airport:

Trip Planner

Search our weather history database for the weather conditions in past years. The results will help you decide how hot, cold, wet, or windy it might be!

Date:

Astronomy

Jul. 29, 2013 Rise Set
Actual Time 5:41 AM CDT 8:26 PM CDT
Civil Twilight 5:08 AM CDT 9:00 PM CDT
Nautical Twilight 4:25 AM CDT 9:42 PM CDT
Astronomical Twilight 3:35 AM CDT 10:31 PM CDT
Moon No Moon Rise 1:44 PM CDT (7/29)
Length of Visible Light 15h 52m
Length of Day
14h 44m
Waning Gibbous, 50% of the Moon is Illuminated
Jul 29
Waning Gibbous
Jul 29
Last Quarter
Aug 6
New
Aug 14
First Quarter
Aug 20
Full

Hourly Weather History & Observations

Time (CDT) Temp. Dew Point Humidity Pressure Visibility Wind Dir Wind Speed Gust Speed Precip Events Conditions
12:15 AM 54.5 °F 46.9 °F 76% 30.02 in 10.0 mi NNW 8.1 mph - N/A   Clear
12:35 AM 54.1 °F 46.4 °F 75% 30.02 in 10.0 mi NW 8.1 mph - N/A   Clear
12:55 AM 53.6 °F 45.9 °F 75% 30.03 in 10.0 mi NNW 9.2 mph - N/A   Clear
1:15 AM 52.9 °F 45.7 °F 77% 30.03 in 10.0 mi NNW 5.8 mph - N/A   Clear
1:35 AM 52.2 °F 45.7 °F 79% 30.03 in 10.0 mi NNW 3.5 mph - N/A   Clear
1:55 AM 51.8 °F 45.5 °F 79% 30.04 in 10.0 mi NNW 4.6 mph - N/A   Scattered Clouds
2:15 AM 52.0 °F 45.7 °F 79% 30.05 in 10.0 mi NNW 3.5 mph - N/A   Overcast
2:55 AM 51.8 °F 45.5 °F 79% 30.05 in 10.0 mi NW 4.6 mph - N/A   Scattered Clouds
3:15 AM 50.9 °F 45.5 °F 82% 30.06 in 10.0 mi NW 3.5 mph - N/A   Clear
3:35 AM 50.5 °F 45.5 °F 83% 30.06 in 10.0 mi North 4.6 mph - N/A   Clear
3:55 AM 50.0 °F 45.5 °F 85% 30.06 in 10.0 mi NNW 4.6 mph - N/A   Clear
4:15 AM 49.8 °F 45.5 °F 85% 30.06 in 10.0 mi NNW 5.8 mph - N/A   Mostly Cloudy
4:35 AM 50.4 °F 46.0 °F 85% 30.07 in 10.0 mi NNW 5.8 mph - N/A   Overcast
4:55 AM 50.2 °F 46.4 °F 87% 30.08 in 10.0 mi NW 6.9 mph - N/A   Overcast
5:15 AM 50.0 °F 46.4 °F 87% 30.08 in 10.0 mi North 4.6 mph - N/A   Overcast
5:35 AM 50.0 °F 46.8 °F 89% 30.08 in 10.0 mi NNW 5.8 mph - N/A   Overcast
5:55 AM 50.2 °F 46.9 °F 89% 30.09 in 10.0 mi North 4.6 mph - N/A   Overcast
6:15 AM 50.5 °F 47.3 °F 89% 30.10 in 10.0 mi North 6.9 mph - N/A   Overcast
6:35 AM 50.9 °F 47.5 °F 88% 30.11 in 10.0 mi North 8.1 mph - N/A   Overcast
6:55 AM 51.3 °F 47.8 °F 88% 30.12 in 10.0 mi North 10.4 mph - N/A   Overcast
7:15 AM 51.4 °F 48.0 °F 88% 30.12 in 10.0 mi North 5.8 mph - N/A   Overcast
7:35 AM 51.6 °F 48.2 °F 88% 30.12 in 10.0 mi North 9.2 mph - N/A   Overcast
7:55 AM 52.0 °F 48.4 °F 88% 30.13 in 10.0 mi NNE 4.6 mph - N/A   Overcast
8:15 AM 52.9 °F 48.6 °F 85% 30.13 in 10.0 mi NNE 6.9 mph - N/A   Mostly Cloudy
8:35 AM 54.7 °F 48.4 °F 79% 30.14 in 10.0 mi North 9.2 mph - N/A   Scattered Clouds
8:55 AM 55.4 °F 48.6 °F 78% 30.14 in 10.0 mi North 3.5 mph - N/A   Mostly Cloudy
9:15 AM 56.7 °F 48.4 °F 74% 30.15 in 10.0 mi NW 3.5 mph - N/A   Overcast
9:35 AM 58.8 °F 49.5 °F 71% 30.14 in 10.0 mi North 3.5 mph - N/A   Overcast
9:55 AM 59.4 °F 49.3 °F 69% 30.14 in 10.0 mi NE 4.6 mph - N/A   Scattered Clouds
10:15 AM 60.4 °F 50.0 °F 68% 30.15 in 10.0 mi NNE 3.5 mph - N/A   Scattered Clouds
10:35 AM 61.2 °F 50.2 °F 67% 30.15 in 10.0 mi West 5.8 mph - N/A   Scattered Clouds
10:55 AM 62.2 °F 50.2 °F 65% 30.15 in 10.0 mi Calm Calm - N/A   Scattered Clouds
11:15 AM 63.0 °F 50.7 °F 64% 30.15 in 10.0 mi Calm Calm - N/A   Clear
11:35 AM 64.0 °F 50.5 °F 61% 30.15 in 10.0 mi SE 3.5 mph - N/A   Clear
11:55 AM 65.5 °F 51.6 °F 61% 30.15 in 10.0 mi NNW 3.5 mph - N/A   Clear
12:15 PM 66.6 °F 52.2 °F 60% 30.15 in 10.0 mi Calm Calm - N/A   Clear
12:35 PM 66.7 °F 51.3 °F 57% 30.16 in 10.0 mi NW 3.5 mph - N/A   Clear
12:55 PM 67.5 °F 51.6 °F 57% 30.15 in 10.0 mi Calm Calm - N/A   Clear
1:15 PM 68.9 °F 52.0 °F 55% 30.14 in 10.0 mi Calm Calm - N/A   Scattered Clouds
1:35 PM 69.4 °F 52.5 °F 55% 30.14 in 10.0 mi ESE 5.8 mph - N/A   Overcast
1:55 PM 69.4 °F 52.3 °F 54% 30.14 in 10.0 mi West 5.8 mph - N/A   Mostly Cloudy
2:15 PM 69.6 °F 52.3 °F 54% 30.14 in 10.0 mi WNW 3.5 mph - N/A   Scattered Clouds
2:35 PM 70.2 °F 52.7 °F 54% 30.14 in 10.0 mi South 3.5 mph - N/A   Scattered Clouds
2:55 PM 71.1 °F 53.1 °F 53% 30.14 in 10.0 mi South 4.6 mph - N/A   Scattered Clouds
3:15 PM 70.7 °F 52.5 °F 52% 30.14 in 10.0 mi SE 3.5 mph - N/A   Scattered Clouds
3:35 PM 71.4 °F 52.5 °F 51% 30.14 in 10.0 mi South 4.6 mph - N/A   Scattered Clouds
3:55 PM 69.8 °F 52.2 °F 53% 30.13 in 10.0 mi SSE 4.6 mph - N/A   Scattered Clouds
4:15 PM 70.0 °F 52.2 °F 53% 30.13 in 10.0 mi Calm Calm - N/A   Clear
4:35 PM 70.2 °F 52.3 °F 53% 30.13 in 10.0 mi Calm Calm - N/A   Scattered Clouds
4:55 PM 71.6 °F 51.8 °F 50% 30.13 in 10.0 mi Calm Calm - N/A   Overcast
5:15 PM 73.6 °F 53.6 °F 50% 30.13 in 10.0 mi SSW 6.9 mph - N/A   Overcast
5:35 PM 72.5 °F 53.1 °F 50% 30.13 in 10.0 mi SE 5.8 mph - N/A   Overcast
5:55 PM 72.3 °F 53.1 °F 51% 30.13 in 10.0 mi SSW 4.6 mph - N/A   Overcast
6:15 PM 71.6 °F 52.9 °F 52% 30.13 in 10.0 mi South 4.6 mph - N/A   Mostly Cloudy
6:35 PM 71.6 °F 52.7 °F 51% 30.13 in 10.0 mi SSE 5.8 mph - N/A   Scattered Clouds
6:55 PM 71.1 °F 52.7 °F 52% 30.14 in 10.0 mi South 5.8 mph - N/A   Mostly Cloudy
7:15 PM 70.7 °F 52.9 °F 53% 30.14 in 10.0 mi South 6.9 mph - N/A   Scattered Clouds
7:35 PM 69.8 °F 52.2 °F 53% 30.14 in 10.0 mi South 6.9 mph - N/A   Clear
7:55 PM 68.5 °F 52.0 °F 55% 30.15 in 10.0 mi South 5.8 mph - N/A   Clear
8:15 PM 66.7 °F 52.2 °F 59% 30.15 in 10.0 mi South 3.5 mph - N/A   Clear
8:35 PM 64.8 °F 52.3 °F 64% 30.16 in 10.0 mi South 4.6 mph - N/A   Clear
8:55 PM 63.7 °F 53.6 °F 70% 30.16 in 10.0 mi South 4.6 mph - N/A   Clear
9:15 PM 63.9 °F 54.1 °F 71% 30.16 in 10.0 mi SSE 4.6 mph - N/A   Clear
9:35 PM 63.0 °F 54.5 °F 74% 30.16 in 10.0 mi SSE 4.6 mph - N/A   Clear
9:55 PM 61.5 °F 54.5 °F 78% 30.17 in 10.0 mi SSE 3.5 mph - N/A   Clear
10:15 PM 60.3 °F 54.5 °F 81% 30.17 in 10.0 mi SE 3.5 mph - N/A   Clear
10:35 PM 59.0 °F 54.0 °F 83% 30.17 in 10.0 mi SSE 3.5 mph - N/A   Clear
10:55 PM 58.3 °F 53.6 °F 84% 30.16 in 10.0 mi SSE 3.5 mph - N/A   Clear
11:15 PM 58.1 °F 53.6 °F 85% 30.17 in 10.0 mi Calm Calm - N/A   Clear
11:35 PM 55.9 °F 53.1 °F 90% 30.17 in 10.0 mi Calm Calm - N/A   Clear
11:55 PM 57.4 °F 53.2 °F 86% 30.18 in 10.0 mi Calm Calm - N/A   Clear